When you browse on this site, cookies collect data to enhance your experience and personalize the content and advertising you see.
Visit our Privacy Policy to learn more. By continuing to use the site, you agree to this use of cookies and data.
  • In Spain
  • List of Countries
  • For 7 days
  • Water Temperature
  • Weather Map
  • Weather Widgets
  • user-avatar
    Login

    Hourly Weather Kalemie

    Today, 22 October, Tuesday

    Time Temperature Precipitation Wind Pressure Humidity
    00:00 +23°C° 0.5 mm 1 mps 705 mmHg 96%
    01:00 +23°C° 0.5 mm 2 mps 705 mmHg 96%
    02:00 +23°C° 0 mm 2 mps 705 mmHg 95%
    03:00 +23°C° 0 mm 2 mps 705 mmHg 96%
    04:00 +21°C° 0 mm 2 mps 705 mmHg 96%
    05:00 +21°C° 0 mm 2 mps 705 mmHg 96%
    06:00 +22°C° 0 mm 3 mps 705 mmHg 94%
    07:00 +24°C° 0 mm 3 mps 706 mmHg 92%
    08:00 +24°C° 0 mm 3 mps 707 mmHg 89%
    09:00 +26°C° 0 mm 3 mps 707 mmHg 84%
    10:00 +27°C° 0 mm 2 mps 707 mmHg 79%
    11:00 +29°C° 0 mm 2 mps 706 mmHg 73%
    12:00 +29°C° 0.5 mm 2 mps 706 mmHg 74%
    13:00 +29°C° 0.5 mm 1 mps 705 mmHg 74%
    14:00 +29°C° 0.5 mm 1 mps 704 mmHg 75%
    15:00 +29°C° 1.3 mm 1 mps 703 mmHg 78%
    16:00 +28°C° 1.3 mm 1 mps 703 mmHg 81%
    17:00 +26°C° 1.3 mm 0 mps 703 mmHg 84%
    18:00 +25°C° 0.8 mm 0 mps 703 mmHg 87%
    19:00 +23°C° 0.8 mm 0 mps 704 mmHg 90%
    20:00 +22°C° 0.8 mm 0 mps 704 mmHg 93%
    21:00 +22°C° 0.6 mm 0 mps 704 mmHg 94%
    22:00 +21°C° 0.6 mm 0 mps 704 mmHg 95%
    23:00 +21°C° 0.6 mm 0 mps 705 mmHg 96%

    Tomorrow, 23 October, Wednesday

    Time Temperature Precipitation Wind Pressure Humidity
    00:00 +23°C° 2.4 mm 1 mps 705 mmHg 96%
    01:00 +23°C° 2.4 mm 1 mps 704 mmHg 96%
    02:00 +23°C° 2.4 mm 1 mps 704 mmHg 97%
    03:00 +23°C° 1.7 mm 1 mps 705 mmHg 97%
    04:00 +23°C° 1.7 mm 1 mps 705 mmHg 97%
    05:00 +23°C° 1.7 mm 1 mps 705 mmHg 97%
    06:00 +23°C° 0.6 mm 1 mps 705 mmHg 97%
    07:00 +23°C° 0.6 mm 1 mps 706 mmHg 96%
    08:00 +23°C° 0.6 mm 1 mps 706 mmHg 96%
    09:00 +23°C° 0.1 mm 2 mps 706 mmHg 94%
    10:00 +24°C° 0.1 mm 2 mps 706 mmHg 93%
    11:00 +24°C° 0.1 mm 2 mps 705 mmHg 91%
    12:00 +25°C° 0 mm 2 mps 705 mmHg 86%
    13:00 +26°C° 0 mm 2 mps 704 mmHg 81%
    14:00 +28°C° 0 mm 2 mps 704 mmHg 76%
    15:00 +28°C° 0 mm 1 mps 703 mmHg 78%
    16:00 +28°C° 0 mm 1 mps 703 mmHg 79%
    17:00 +28°C° 0 mm 1 mps 703 mmHg 80%
    18:00 +24°C° 0 mm 0 mps 703 mmHg 84%
    19:00 +23°C° 0 mm 0 mps 704 mmHg 88%
    20:00 +21°C° 0 mm 0 mps 704 mmHg 92%
    21:00 +21°C° 0 mm 0 mps 704 mmHg 93%
    22:00 +21°C° 0 mm 0 mps 704 mmHg 94%
    23:00 +21°C° 0 mm 0 mps 704 mmHg 95%

    Day after tomorrow, 24 October, Thursday

    Time Temperature Precipitation Wind Pressure Humidity
    00:00 +21°C° 0 mm 0 mps 704 mmHg 95%
    01:00 +20°C° 0 mm 0 mps 704 mmHg 96%
    02:00 +20°C° 0 mm 0 mps 704 mmHg 96%
    03:00 +20°C° 0 mm 0 mps 704 mmHg 96%
    04:00 +22°C° 0 mm 1 mps 704 mmHg 96%
    05:00 +22°C° 0 mm 1 mps 704 mmHg 96%
    06:00 +23°C° 0 mm 1 mps 705 mmHg 94%
    07:00 +24°C° 0 mm 1 mps 706 mmHg 92%
    08:00 +22°C° 0 mm 0 mps 706 mmHg 90%
    09:00 +24°C° 0 mm 0 mps 706 mmHg 84%
    10:00 +26°C° 0 mm 0 mps 706 mmHg 78%
    11:00 +28°C° 0 mm 0 mps 706 mmHg 72%
    12:00 +29°C° 0.3 mm 0 mps 705 mmHg 69%
    13:00 +31°C° 0.3 mm 1 mps 704 mmHg 66%
    14:00 +32°C° 0.3 mm 1 mps 703 mmHg 63%
    15:00 +31°C° 1.6 mm 1 mps 703 mmHg 70%
    16:00 +29°C° 1.6 mm 1 mps 703 mmHg 77%
    17:00 +28°C° 1.6 mm 1 mps 703 mmHg 84%
    18:00 +27°C° 0.3 mm 1 mps 703 mmHg 86%
    19:00 +26°C° 0.3 mm 1 mps 704 mmHg 88%
    20:00 +25°C° 0.3 mm 1 mps 704 mmHg 90%
    21:00 +24°C° 0 mm 1 mps 704 mmHg 91%
    22:00 +22°C° 0 mm 0 mps 704 mmHg 91%
    23:00 +22°C° 0 mm 0 mps 704 mmHg 91%

    25 October, Friday

    Time Temperature Precipitation Wind Pressure Humidity
    00:00 +22°C° 0.3 mm 0 mps 704 mmHg 91%
    01:00 +22°C° 0.3 mm 0 mps 704 mmHg 91%
    02:00 +21°C° 0.3 mm 0 mps 704 mmHg 91%
    03:00 +21°C° 0.1 mm 0 mps 704 mmHg 92%
    04:00 +21°C° 0.1 mm 0 mps 704 mmHg 92%
    05:00 +21°C° 0.1 mm 0 mps 704 mmHg 92%
    06:00 +22°C° 0 mm 0 mps 704 mmHg 89%
    07:00 +24°C° 0 mm 0 mps 705 mmHg 86%
    08:00 +27°C° 0 mm 1 mps 706 mmHg 82%
    09:00 +28°C° 0.8 mm 1 mps 706 mmHg 78%
    10:00 +30°C° 0.8 mm 2 mps 705 mmHg 74%
    11:00 +31°C° 0.8 mm 2 mps 705 mmHg 69%
    12:00 +31°C° 1.5 mm 2 mps 704 mmHg 69%
    13:00 +31°C° 1.5 mm 2 mps 703 mmHg 69%
    14:00 +31°C° 1.5 mm 1 mps 703 mmHg 69%
    15:00 +30°C° 1.9 mm 1 mps 703 mmHg 74%
    16:00 +29°C° 1.9 mm 1 mps 703 mmHg 79%
    17:00 +26°C° 1.9 mm 0 mps 703 mmHg 84%
    18:00 +25°C° 0.7 mm 0 mps 703 mmHg 85%
    19:00 +24°C° 0.7 mm 0 mps 704 mmHg 86%
    20:00 +23°C° 0.7 mm 0 mps 704 mmHg 87%
    21:00 +23°C° 0.1 mm 0 mps 704 mmHg 87%
    22:00 +23°C° 0.1 mm 0 mps 704 mmHg 88%
    23:00 +22°C° 0.1 mm 0 mps 705 mmHg 89%

    26 October, Saturday

    Time Temperature Precipitation Wind Pressure Humidity
    00:00 +22°C° 0.4 mm 0 mps 704 mmHg 90%
    01:00 +24°C° 0.4 mm 1 mps 704 mmHg 92%
    02:00 +23°C° 0.4 mm 1 mps 704 mmHg 93%
    03:00 +23°C° 0.3 mm 1 mps 704 mmHg 94%
    04:00 +23°C° 0.3 mm 1 mps 704 mmHg 94%
    05:00 +23°C° 0.3 mm 1 mps 704 mmHg 94%
    06:00 +24°C° 0.2 mm 1 mps 705 mmHg 92%
    07:00 +25°C° 0.2 mm 1 mps 706 mmHg 89%
    08:00 +26°C° 0.2 mm 1 mps 706 mmHg 86%
    09:00 +28°C° 1.6 mm 1 mps 706 mmHg 81%
    10:00 +30°C° 1.6 mm 1 mps 706 mmHg 75%
    11:00 +29°C° 1.6 mm 0 mps 706 mmHg 70%
    12:00 +31°C° 1.6 mm 1 mps 705 mmHg 69%
    13:00 +31°C° 1.6 mm 1 mps 704 mmHg 69%
    14:00 +31°C° 1.6 mm 1 mps 703 mmHg 68%
    15:00 +30°C° 1.5 mm 1 mps 703 mmHg 73%
    16:00 +29°C° 1.5 mm 1 mps 703 mmHg 78%
    17:00 +26°C° 1.5 mm 0 mps 703 mmHg 84%
    18:00 +25°C° 0.8 mm 0 mps 703 mmHg 85%
    19:00 +24°C° 0.8 mm 0 mps 703 mmHg 86%
    20:00 +23°C° 0.8 mm 0 mps 704 mmHg 88%
    21:00 +23°C° 1.1 mm 0 mps 704 mmHg 89%
    22:00 +22°C° 1.1 mm 0 mps 704 mmHg 89%
    23:00 +22°C° 1.1 mm 0 mps 704 mmHg 90%

    27 October, Sunday

    Time Temperature Precipitation Wind Pressure Humidity
    00:00 +22°C° 0.7 mm 0 mps 704 mmHg 91%
    01:00 +22°C° 0.7 mm 0 mps 704 mmHg 92%
    02:00 +24°C° 0.7 mm 1 mps 704 mmHg 93%
    03:00 +23°C° 0.3 mm 1 mps 704 mmHg 94%
    04:00 +23°C° 0.3 mm 1 mps 704 mmHg 95%
    05:00 +23°C° 0.3 mm 1 mps 704 mmHg 95%
    06:00 +24°C° 0.1 mm 1 mps 705 mmHg 94%
    07:00 +25°C° 0.1 mm 1 mps 705 mmHg 92%
    08:00 +25°C° 0.1 mm 1 mps 706 mmHg 90%
    09:00 +27°C° 1.2 mm 1 mps 706 mmHg 85%
    10:00 +28°C° 1.2 mm 1 mps 705 mmHg 80%
    11:00 +29°C° 1.2 mm 2 mps 705 mmHg 76%
    12:00 +30°C° 1.1 mm 1 mps 704 mmHg 72%
    13:00 +31°C° 1.1 mm 1 mps 703 mmHg 68%
    14:00 +30°C° 1.1 mm 0 mps 703 mmHg 64%
    15:00 +30°C° 1.1 mm 1 mps 703 mmHg 71%
    16:00 +29°C° 1.1 mm 1 mps 702 mmHg 78%
    17:00 +27°C° 1.1 mm 1 mps 702 mmHg 85%
    18:00 +26°C° 0.4 mm 1 mps 703 mmHg 86%
    19:00 +25°C° 0.4 mm 1 mps 703 mmHg 88%
    20:00 +24°C° 0.4 mm 1 mps 704 mmHg 90%
    21:00 +22°C° 0.2 mm 0 mps 704 mmHg 90%
    22:00 +22°C° 0.2 mm 0 mps 704 mmHg 89%
    23:00 +22°C° 0.2 mm 0 mps 704 mmHg 89%

    28 October, Monday

    Time Temperature Precipitation Wind Pressure Humidity
    00:00 +21°C° 0 mm 0 mps 704 mmHg 89%
    01:00 +23°C° 0 mm 1 mps 704 mmHg 90%
    02:00 +23°C° 0 mm 1 mps 703 mmHg 91%
    03:00 +23°C° 0.1 mm 1 mps 703 mmHg 93%
    04:00 +22°C° 0.1 mm 1 mps 703 mmHg 95%
    05:00 +22°C° 0.1 mm 1 mps 703 mmHg 97%
    06:00 +23°C° 0 mm 1 mps 704 mmHg 94%
    07:00 +24°C° 0 mm 2 mps 705 mmHg 92%
    08:00 +24°C° 0 mm 2 mps 705 mmHg 90%
    09:00 +26°C° 0.7 mm 2 mps 705 mmHg 85%
    10:00 +27°C° 0.7 mm 2 mps 705 mmHg 81%
    11:00 +29°C° 0.7 mm 2 mps 705 mmHg 77%
    12:00 +29°C° 0.6 mm 2 mps 704 mmHg 75%
    13:00 +29°C° 0.6 mm 2 mps 703 mmHg 74%
    14:00 +29°C° 0.6 mm 1 mps 703 mmHg 73%
    15:00 +29°C° 1.4 mm 1 mps 703 mmHg 78%
    16:00 +28°C° 1.4 mm 1 mps 703 mmHg 82%
    17:00 +27°C° 1.4 mm 1 mps 703 mmHg 87%
    18:00 +26°C° 0.6 mm 1 mps 703 mmHg 88%
    19:00 +25°C° 0.6 mm 1 mps 704 mmHg 90%
    20:00 +24°C° 0.6 mm 1 mps 704 mmHg 92%
    21:00 +23°C° 0.1 mm 1 mps 704 mmHg 93%
    22:00 +23°C° 0.1 mm 1 mps 704 mmHg 93%
    23:00 +23°C° 0.1 mm 1 mps 704 mmHg 94%
    Show more